TimeCDT,TemperatureF,Dew PointF,Humidity,Sea Level PressureIn,VisibilityMPH,Wind Direction,Wind SpeedMPH,Gust SpeedMPH,PrecipitationIn,Events,Conditions,WindDirDegrees,DateUTC
12:15 AM,52.3,52.3,100,30.13,10.0,Calm,Calm,-,N/A,,Mostly Cloudy,0,2013-08-15 05:15:00
12:35 AM,51.8,51.8,100,30.13,10.0,Calm,Calm,-,N/A,,Overcast,0,2013-08-15 05:35:00
12:55 AM,52.2,52.2,100,30.13,10.0,Calm,Calm,-,N/A,,Overcast,0,2013-08-15 05:55:00
1:15 AM,52.0,52.0,100,30.13,10.0,Calm,Calm,-,N/A,,Overcast,0,2013-08-15 06:15:00
1:35 AM,52.7,52.7,100,30.13,10.0,Calm,Calm,-,N/A,,Overcast,0,2013-08-15 06:35:00
1:55 AM,52.7,52.7,100,30.13,10.0,Calm,Calm,-,N/A,,Overcast,0,2013-08-15 06:55:00
2:15 AM,52.2,52.2,100,30.13,10.0,Calm,Calm,-,N/A,,Mostly Cloudy,0,2013-08-15 07:15:00
2:35 AM,51.8,51.8,100,30.13,10.0,Calm,Calm,-,N/A,,Mostly Cloudy,0,2013-08-15 07:35:00
2:55 AM,51.6,51.6,100,30.13,10.0,Calm,Calm,-,N/A,,Mostly Cloudy,0,2013-08-15 07:55:00
3:15 AM,52.0,52.0,100,30.13,10.0,Calm,Calm,-,N/A,,Overcast,0,2013-08-15 08:15:00
3:35 AM,52.9,52.9,100,30.13,10.0,Calm,Calm,-,N/A,,Overcast,0,2013-08-15 08:35:00
3:55 AM,54.0,54.0,100,30.13,10.0,Calm,Calm,-,N/A,,Overcast,0,2013-08-15 08:55:00
4:15 AM,54.0,54.0,100,30.13,10.0,Calm,Calm,-,N/A,,Overcast,0,2013-08-15 09:15:00
4:35 AM,53.8,53.8,100,30.13,10.0,Calm,Calm,-,N/A,,Overcast,0,2013-08-15 09:35:00
4:55 AM,53.6,53.6,100,30.13,10.0,Calm,Calm,-,N/A,,Overcast,0,2013-08-15 09:55:00
5:15 AM,53.2,53.2,100,30.13,10.0,Calm,Calm,-,N/A,,Overcast,0,2013-08-15 10:15:00
5:35 AM,52.3,52.3,100,30.13,10.0,SSW,3.5,-,N/A,,Overcast,210,2013-08-15 10:35:00
5:55 AM,52.5,52.5,100,30.13,10.0,Calm,Calm,-,N/A,,Overcast,0,2013-08-15 10:55:00
6:15 AM,51.1,51.1,100,30.13,10.0,Calm,Calm,-,N/A,,Overcast,0,2013-08-15 11:15:00
6:35 AM,51.1,51.1,100,30.14,10.0,Calm,Calm,-,N/A,,Overcast,0,2013-08-15 11:35:00
6:55 AM,52.0,52.0,100,30.14,10.0,Calm,Calm,-,N/A,,Overcast,0,2013-08-15 11:55:00
7:15 AM,53.2,53.2,100,30.14,10.0,Calm,Calm,-,N/A,,Overcast,0,2013-08-15 12:15:00
7:35 AM,55.0,55.0,100,30.15,10.0,Calm,Calm,-,N/A,,Overcast,0,2013-08-15 12:35:00
7:55 AM,55.9,55.9,100,30.15,10.0,Calm,Calm,-,N/A,,Overcast,0,2013-08-15 12:55:00
8:15 AM,57.9,57.6,99,30.16,10.0,Calm,Calm,-,N/A,,Overcast,0,2013-08-15 13:15:00
8:35 AM,59.7,58.6,96,30.16,10.0,Calm,Calm,-,N/A,,Overcast,0,2013-08-15 13:35:00
8:55 AM,61.7,59.0,91,30.16,10.0,Calm,Calm,-,N/A,,Overcast,0,2013-08-15 13:55:00
9:15 AM,64.2,59.0,83,30.16,10.0,Calm,Calm,-,N/A,,Overcast,0,2013-08-15 14:15:00
9:35 AM,65.5,54.5,68,30.16,10.0,Calm,Calm,-,N/A,,Overcast,0,2013-08-15 14:35:00
9:55 AM,66.4,55.2,67,30.16,10.0,Calm,Calm,-,N/A,,Mostly Cloudy,0,2013-08-15 14:55:00
10:15 AM,68.5,54.3,60,30.16,10.0,West,5.8,-,N/A,,Scattered Clouds,260,2013-08-15 15:15:00
10:35 AM,70.5,54.3,56,30.15,10.0,WSW,3.5,-,N/A,,Scattered Clouds,240,2013-08-15 15:35:00
10:55 AM,73.2,50.4,44,30.15,10.0,WNW,8.1,-,N/A,,Clear,290,2013-08-15 15:55:00
11:15 AM,72.7,50.7,46,30.15,10.0,Calm,Calm,-,N/A,,Scattered Clouds,0,2013-08-15 16:15:00
11:35 AM,74.3,49.1,41,30.14,10.0,NW,4.6,-,N/A,,Scattered Clouds,320,2013-08-15 16:35:00
11:55 AM,74.7,47.7,38,30.14,10.0,WNW,6.9,-,N/A,,Scattered Clouds,290,2013-08-15 16:55:00
12:15 PM,76.1,48.7,38,30.13,10.0,North,4.6,-,N/A,,Scattered Clouds,350,2013-08-15 17:15:00
12:35 PM,76.3,46.4,35,30.13,10.0,West,9.2,-,N/A,,Clear,260,2013-08-15 17:35:00
12:55 PM,77.5,45.9,33,30.13,10.0,West,8.1,-,N/A,,Scattered Clouds,280,2013-08-15 17:55:00
1:15 PM,77.2,46.0,33,30.12,10.0,West,8.1,-,N/A,,Scattered Clouds,260,2013-08-15 18:15:00
1:35 PM,77.2,45.9,33,30.12,10.0,WNW,5.8,-,N/A,,Clear,290,2013-08-15 18:35:00
1:55 PM,79.2,46.0,31,30.12,10.0,West,8.1,-,N/A,,Scattered Clouds,270,2013-08-15 18:55:00
2:15 PM,77.7,44.6,31,30.11,10.0,West,8.1,-,N/A,,Scattered Clouds,260,2013-08-15 19:15:00
2:35 PM,78.8,46.0,31,30.11,10.0,West,8.1,16.1,N/A,,Scattered Clouds,260,2013-08-15 19:35:00
2:55 PM,77.9,45.3,31,30.11,10.0,West,9.2,-,N/A,,Scattered Clouds,270,2013-08-15 19:55:00
3:15 PM,78.6,44.4,30,30.10,10.0,WNW,5.8,-,N/A,,Clear,300,2013-08-15 20:15:00
3:35 PM,78.8,44.8,30,30.09,10.0,WSW,8.1,-,N/A,,Clear,250,2013-08-15 20:35:00
3:55 PM,78.3,44.6,30,30.09,10.0,WNW,6.9,-,N/A,,Clear,300,2013-08-15 20:55:00
4:15 PM,77.0,45.9,33,30.09,10.0,West,8.1,-,N/A,,Scattered Clouds,260,2013-08-15 21:15:00
4:35 PM,78.4,45.3,31,30.09,10.0,WSW,4.6,-,N/A,,Clear,240,2013-08-15 21:35:00
4:55 PM,78.1,45.7,32,30.09,10.0,WSW,9.2,-,N/A,,Clear,250,2013-08-15 21:55:00
5:15 PM,77.7,46.0,33,30.09,10.0,WSW,6.9,-,N/A,,Clear,240,2013-08-15 22:15:00
5:35 PM,77.7,45.9,32,30.09,10.0,West,8.1,-,N/A,,Clear,280,2013-08-15 22:35:00
5:55 PM,76.8,45.7,33,30.10,10.0,WSW,8.1,-,N/A,,Clear,240,2013-08-15 22:55:00
6:15 PM,76.6,46.0,34,30.09,10.0,WSW,6.9,-,N/A,,Clear,250,2013-08-15 23:15:00
6:35 PM,76.1,47.1,36,30.09,10.0,West,5.8,-,N/A,,Clear,270,2013-08-15 23:35:00
6:55 PM,75.4,48.2,38,30.10,10.0,West,5.8,-,N/A,,Clear,270,2013-08-15 23:55:00
7:15 PM,74.3,49.3,41,30.10,10.0,West,4.6,-,N/A,,Clear,260,2013-08-16 00:15:00
7:35 PM,72.1,50.7,47,30.10,10.0,Calm,Calm,-,N/A,,Clear,0,2013-08-16 00:35:00
7:55 PM,67.8,54.0,61,30.11,10.0,Calm,Calm,-,N/A,,Clear,0,2013-08-16 00:55:00
8:15 PM,63.5,54.1,72,30.11,10.0,Calm,Calm,-,N/A,,Clear,0,2013-08-16 01:15:00
8:35 PM,59.9,53.8,80,30.11,10.0,Calm,Calm,-,N/A,,Clear,0,2013-08-16 01:35:00
8:55 PM,57.6,52.9,84,30.11,10.0,Calm,Calm,-,N/A,,Clear,0,2013-08-16 01:55:00
9:15 PM,56.5,52.3,86,30.12,10.0,Calm,Calm,-,N/A,,Clear,0,2013-08-16 02:15:00
9:35 PM,55.4,55.0,99,30.12,10.0,Calm,Calm,-,N/A,,Clear,0,2013-08-16 02:35:00
9:55 PM,54.3,54.1,99,30.13,10.0,Calm,Calm,-,N/A,,Clear,0,2013-08-16 02:55:00
10:15 PM,53.4,53.4,100,30.13,10.0,Calm,Calm,-,N/A,,Clear,0,2013-08-16 03:15:00
10:35 PM,52.7,52.7,100,30.13,10.0,Calm,Calm,-,N/A,,Clear,0,2013-08-16 03:35:00
10:55 PM,51.1,51.1,100,30.13,10.0,Calm,Calm,-,N/A,,Clear,0,2013-08-16 03:55:00
11:15 PM,50.9,50.9,100,30.13,10.0,Calm,Calm,-,N/A,,Clear,0,2013-08-16 04:15:00
11:35 PM,50.2,50.2,100,30.14,10.0,Calm,Calm,-,N/A,,Clear,0,2013-08-16 04:35:00
11:55 PM,49.1,49.1,100,30.15,10.0,Calm,Calm,-,N/A,,Clear,0,2013-08-16 04:55:00